BEIDOU-3 G1

Last updated on Fri Sep 19 2025 00:02:50 GMT+0000 (Coordinated Universal Time)

1 43683U 18085A 25261.32435326 -.00000296 00000+0 00000+0 0 9996 2 43683 2.8910 105.1798 0003562 10.3383 138.8134 1.00272282 25336
UTC large
Height (km)
Speed (km/s)
/
Latitude / Longitude
Inclination (degrees)
Orbital Period (minutes)
Azimuth
Elevation
Range (km)
Doppler Factor

Next 0 passes for location: London (51.5072 / 0.1276)

Sorry there are no passes over London.